EW8768 Weather Reports


Display with metric or nautical units.
time (UTC)temp
F
wind
direction
speed
MPH
gust
MPH
rain 1hr
in
rain 24hr
in
rain mn
in
humidity
%
barometer
mb
20200226194540 57 49 1.0 10.0 0.00 0.00 0.00 59 1011.4
20200226193049 57 268 3.0 9.0 0.00 0.00 0.00 58 1012.0
20200226191546 57 273 3.0 13.0 0.00 0.00 0.00 47 1012.0
20200226184513 59 278 6.0 11.0 0.00 0.00 0.00 25 1011.3
20200226183005 59 291 1.0 7.0 0.00 0.00 0.00 20 1011.2
20200226181620 59 321 3.0 10.0 0.00 0.00 0.00 24 1011.9
20200226180141 59 328 2.0 7.0 0.00 0.00 0.00 21 1011.8
20200226174607 59 307 1.0 6.0 0.00 0.00 0.00 21 1012.6
20200226173202 59 346 0.0 4.0 0.00 0.00 0.00 19 1012.5
20200226171602 59 301 1.0 4.0 0.00 0.00 0.00 22 1012.2
20200226170127 59 356 2.0 7.0 0.00 0.00 0.00 19 1011.9
20200226164609 59 34 2.0 11.0 0.00 0.00 0.00 20 1011.0
20200226163044 59 295 3.0 7.0 0.00 0.00 0.00 19 1012.3
20200226161629 60 289 1.0 7.0 0.00 0.00 0.00 12 1012.7
20200226160120 60 298 1.0 4.0 0.00 0.00 0.00 1 1012.4
20200226154527 60 300 1.0 4.0 0.00 0.00 0.00 3 1012.0
20200226153018 60 317 1.0 4.0 0.00 0.00 0.00 1 1011.9
20200226151527 60 319 0.0 2.0 0.00 0.00 0.00 1 1011.8
20200226144519 60 352 2.0 6.0 0.00 0.00 0.00 1 1010.1
20200226143202 60 317 1.0 4.0 0.00 0.00 0.00 1 1010.1
20200226141655 60 302 1.0 3.0 0.00 0.00 0.00 1 1010.6
20200226140101 60 306 0.0 3.0 0.00 0.00 0.00 1 1010.2
20200226134716 60 166 0.0 0.0 0.00 0.00 0.00 1 1010.0
20200226133215 60 235 0.0 1.0 0.00 0.00 0.00 1 1009.9
20200226131636 60 235 0.0 1.0 0.00 0.00 0.00 1 1010.0
20200226130207 60 235 0.0 1.0 0.00 0.00 0.00 1 1009.7
20200226124624 60 28 0.0 1.0 0.00 0.05 0.00 1 1009.2
20200226123200 60 28 0.0 1.0 0.00 0.05 0.00 1 1009.1
20200226121615 60 301 0.0 1.0 0.00 0.05 0.00 1 1008.7
20200226120055 60 285 0.0 1.0 0.00 0.05 0.00 1 1008.8
20200226114519 60 289 0.0 2.0 0.00 0.05 0.00 1 1008.7
20200226113020 60 288 0.0 1.0 0.00 0.05 0.00 1 1008.7
20200226111511 61 295 0.0 2.0 0.00 0.05 0.00 1 1008.8
20200226110003 61 295 0.0 0.0 0.00 0.05 0.00 1 1008.9
20200226104711 61 295 0.0 0.0 0.00 0.05 0.00 1 1008.8
20200226103203 61 295 0.0 0.0 0.00 0.05 0.00 1 1008.8
20200226101625 61 295 0.0 0.0 0.00 0.05 0.00 1 1008.8
20200226100208 61 295 0.0 0.0 0.00 0.05 0.00 1 1008.6
20200226094603 61 295 0.0 0.0 0.00 0.05 0.00 1 1008.5
20200226093103 61 295 0.0 0.0 0.00 0.05 0.00 1 1008.6
20200226091547 61 295 0.0 1.0 0.00 0.05 0.00 1 1008.9
20200226090036 62 295 0.0 0.0 0.00 0.05 0.00 1 1008.7
20200226084539 62 295 0.0 0.0 0.00 0.05 0.00 1 1008.8
20200226083128 62 295 0.0 0.0 0.00 0.05 0.00 1 1009.2
20200226081528 62 295 0.0 0.0 0.00 0.05 0.00 1 1009.0
20200226080018 62 295 0.0 0.0 0.00 0.05 0.00 1 1008.9
20200226074528 62 295 0.0 0.0 0.00 0.05 0.00 1 1009.5
20200226073008 62 295 0.0 0.0 0.00 0.05 0.00 1 1009.4
20200226071505 62 295 0.0 0.0 0.00 0.05 0.00 1 1009.1
20200226070200 63 295 0.0 0.0 0.00 0.05 0.00 1 1008.6
20200226064634 63 295 0.0 0.0 0.00 0.07 0.00 1 1008.7
20200226063103 63 295 0.0 1.0 0.00 0.07 0.00 1 1009.1
20200226061722 63 295 0.0 0.0 0.00 0.07 0.00 1 1009.0
20200226060134 63 295 0.0 0.0 0.00 0.07 0.00 1 1009.1
20200226054554 63 295 0.0 0.0 0.00 0.21 0.07 1 1009.0
20200226053122 64 295 0.0 1.0 0.00 0.21 0.07 1 1009.0
20200226051544 64 295 0.0 0.0 0.00 0.21 0.07 1 1009.1
20200226050114 64 295 0.0 1.0 0.00 0.21 0.07 1 1009.2
20200226044603 64 295 0.0 1.0 0.00 0.30 0.07 1 1008.8
20200226043025 64 295 0.0 1.0 0.00 0.30 0.07 1 1008.9
20200226041528 65 295 0.0 0.0 0.00 0.30 0.07 1 1009.4
20200226040018 65 295 0.0 1.0 0.00 0.30 0.07 1 1009.4
20200226034519 65 316 0.0 0.0 0.00 0.56 0.07 1 1008.9
20200226033033 65 316 1.0 2.0 0.00 0.56 0.07 1 1009.1
20200226031653 66 316 0.0 2.0 0.00 0.56 0.07 1 1008.7
20200226030225 66 311 0.0 3.0 0.00 0.56 0.07 1 1009.3
20200226024607 66 114 0.0 2.0 0.00 0.91 0.07 1 1008.5
20200226023256 66 114 1.0 2.0 0.00 0.91 0.07 1 1008.3
20200226021836 66 198 0.0 2.0 0.00 0.91 0.07 1 1008.5
20200226020232 66 108 0.0 1.0 0.00 0.91 0.07 1 1008.4
20200226014638 66 283 0.0 2.0 0.00 1.09 0.07 1 1009.0
20200226013111 66 302 0.0 1.0 0.00 1.09 0.07 1 1008.5
20200226011745 66 278 0.0 1.0 0.00 1.09 0.07 1 1008.2
20200226010049 66 108 0.0 1.0 0.00 1.09 0.07 1 1008.1
20200226004557 67 108 0.0 2.0 0.00 1.19 0.07 1 1007.2
20200226003058 67 307 0.0 1.0 0.00 1.19 0.07 1 1007.7
20200226001600 68 307 0.0 1.0 0.00 1.19 0.07 1 1007.3
20200225234528 68 283 0.0 0.0 0.00 1.25 0.07 1 1007.5
20200225233027 69 283 0.0 3.0 0.00 1.25 0.07 1 1007.2
20200225231546 69 304 0.0 1.0 0.00 1.25 0.07 1 1007.8
20200225230040 69 333 0.0 1.0 0.00 1.25 0.07 1 1007.8
20200225224512 70 36 0.0 0.0 0.00 1.26 0.07 1 1007.1
20200225223006 70 41 0.0 0.0 0.00 1.26 0.07 1 1006.4
20200225221750 71 41 0.0 0.0 0.00 1.26 0.07 1 1006.2
20200225220144 71 32 0.0 2.0 0.00 1.26 0.07 1 1006.4
20200225214645 71 311 0.0 1.0 0.00 1.26 0.07 1 1006.4
20200225213202 72 359 0.0 2.0 0.00 1.26 0.07 2 1006.1
20200225211638 73 339 1.0 3.0 0.00 1.26 0.07 3 1006.5
20200225210156 73 74 0.0 2.0 0.00 1.26 0.07 5 1006.3
20200225204551 72 326 0.0 2.0 0.00 1.26 0.07 1 1006.3
20200225203058 71 49 0.0 4.0 0.00 1.26 0.07 1 1006.4
20200225201545 71 281 2.0 5.0 0.00 1.26 0.07 1 1006.6